When you browse on this site, cookies collect data to enhance your experience and personalize the content and advertising you see.
Visit our Privacy Policy to learn more. By continuing to use the site, you agree to this use of cookies and data.
  • In Latvia
  • List of Countries
  • For 7 days
  • Water Temperature
  • Weather Map
  • Weather Widgets
  • user-avatar
    Login

    Hourly Weather Uster

    Today, 22 September, Sunday

    Time Temperature Precipitation Wind Pressure Humidity
    00:00 +13°C° 0 mm 1 mps 719 mmHg 78%
    01:00 +13°C° 0 mm 1 mps 718 mmHg 76%
    02:00 +14°C° 0 mm 1 mps 718 mmHg 74%
    03:00 +14°C° 0 mm 1 mps 718 mmHg 72%
    04:00 +14°C° 0 mm 1 mps 717 mmHg 70%
    05:00 +14°C° 0 mm 1 mps 717 mmHg 71%
    06:00 +15°C° 0 mm 1 mps 717 mmHg 72%
    07:00 +15°C° 0 mm 1 mps 718 mmHg 71%
    08:00 +18°C° 0 mm 1 mps 718 mmHg 65%
    09:00 +20°C° 0 mm 1 mps 718 mmHg 60%
    10:00 +22°C° 0 mm 1 mps 717 mmHg 54%
    11:00 +23°C° 0 mm 1 mps 717 mmHg 52%
    12:00 +24°C° 0 mm 1 mps 717 mmHg 50%
    13:00 +25°C° 0 mm 1 mps 717 mmHg 48%
    14:00 +25°C° 0 mm 1 mps 717 mmHg 50%
    15:00 +23°C° 0 mm 0 mps 716 mmHg 52%
    16:00 +22°C° 0 mm 0 mps 716 mmHg 53%
    17:00 +20°C° 0 mm 0 mps 716 mmHg 60%
    18:00 +20°C° 0 mm 1 mps 716 mmHg 66%
    19:00 +18°C° 0 mm 1 mps 716 mmHg 72%
    20:00 +18°C° 0 mm 1 mps 716 mmHg 74%
    21:00 +16°C° 0 mm 1 mps 716 mmHg 75%
    22:00 +16°C° 0 mm 1 mps 716 mmHg 76%
    23:00 +16°C° 0.2 mm 2 mps 717 mmHg 79%

    Tomorrow, 23 September, Monday

    Time Temperature Precipitation Wind Pressure Humidity
    00:00 +14°C° 0.2 mm 3 mps 717 mmHg 83%
    01:00 +14°C° 0.2 mm 4 mps 717 mmHg 86%
    02:00 +14°C° 1.2 mm 3 mps 717 mmHg 90%
    03:00 +13°C° 1.2 mm 3 mps 718 mmHg 93%
    04:00 +13°C° 1.2 mm 2 mps 718 mmHg 97%
    05:00 +13°C° 1.4 mm 1 mps 718 mmHg 97%
    06:00 +13°C° 1.4 mm 1 mps 718 mmHg 97%
    07:00 +13°C° 1.4 mm 1 mps 718 mmHg 97%
    08:00 +13°C° 0.8 mm 1 mps 719 mmHg 96%
    09:00 +14°C° 0.8 mm 1 mps 719 mmHg 94%
    10:00 +14°C° 0.8 mm 1 mps 720 mmHg 93%
    11:00 +15°C° 0.3 mm 1 mps 720 mmHg 86%
    12:00 +16°C° 0.3 mm 1 mps 720 mmHg 80%
    13:00 +19°C° 0.3 mm 1 mps 720 mmHg 74%
    14:00 +19°C° 0.1 mm 1 mps 720 mmHg 71%
    15:00 +19°C° 0.1 mm 1 mps 720 mmHg 68%
    16:00 +18°C° 0.1 mm 2 mps 720 mmHg 65%
    17:00 +16°C° 0.1 mm 1 mps 720 mmHg 73%
    18:00 +14°C° 0.1 mm 1 mps 720 mmHg 82%
    19:00 +12°C° 0.1 mm 0 mps 719 mmHg 90%
    20:00 +11°C° 0 mm 0 mps 720 mmHg 91%
    21:00 +12°C° 0 mm 1 mps 720 mmHg 92%
    22:00 +11°C° 0 mm 1 mps 720 mmHg 93%
    23:00 +11°C° 0 mm 1 mps 720 mmHg 93%

    Day after tomorrow, 24 September, Tuesday

    Time Temperature Precipitation Wind Pressure Humidity
    00:00 +10°C° 0 mm 1 mps 720 mmHg 93%
    01:00 +9°C° 0 mm 0 mps 720 mmHg 93%
    02:00 +9°C° 0 mm 0 mps 720 mmHg 93%
    03:00 +9°C° 0 mm 0 mps 719 mmHg 93%
    04:00 +9°C° 0 mm 0 mps 719 mmHg 93%
    05:00 +9°C° 0 mm 0 mps 719 mmHg 92%
    06:00 +10°C° 0 mm 1 mps 719 mmHg 91%
    07:00 +10°C° 0 mm 1 mps 718 mmHg 91%
    08:00 +11°C° 0 mm 0 mps 718 mmHg 83%
    09:00 +13°C° 0 mm 0 mps 718 mmHg 76%
    10:00 +15°C° 0 mm 0 mps 718 mmHg 69%
    11:00 +17°C° 0 mm 0 mps 717 mmHg 63%
    12:00 +19°C° 0 mm 0 mps 717 mmHg 57%
    13:00 +21°C° 0 mm 0 mps 717 mmHg 51%
    14:00 +21°C° 0 mm 1 mps 717 mmHg 59%
    15:00 +19°C° 0 mm 1 mps 716 mmHg 66%
    16:00 +16°C° 0 mm 1 mps 716 mmHg 74%
    17:00 +15°C° 0.5 mm 1 mps 716 mmHg 80%
    18:00 +14°C° 0.5 mm 1 mps 716 mmHg 86%
    19:00 +13°C° 0.5 mm 1 mps 716 mmHg 93%
    20:00 +13°C° 0.6 mm 1 mps 716 mmHg 93%
    21:00 +13°C° 0.6 mm 1 mps 716 mmHg 93%
    22:00 +13°C° 0.6 mm 1 mps 716 mmHg 94%
    23:00 +14°C° 1 mm 1 mps 716 mmHg 94%

    25 September, Wednesday

    Time Temperature Precipitation Wind Pressure Humidity
    00:00 +14°C° 1 mm 2 mps 716 mmHg 94%
    01:00 +14°C° 1 mm 2 mps 716 mmHg 95%
    02:00 +14°C° 0.1 mm 2 mps 716 mmHg 95%
    03:00 +13°C° 0.1 mm 1 mps 716 mmHg 95%
    04:00 +13°C° 0.1 mm 1 mps 716 mmHg 95%
    05:00 +13°C° 0.1 mm 1 mps 716 mmHg 94%
    06:00 +13°C° 0.1 mm 1 mps 716 mmHg 94%
    07:00 +13°C° 0.1 mm 1 mps 715 mmHg 94%
    08:00 +13°C° 0.1 mm 1 mps 716 mmHg 92%
    09:00 +14°C° 0.1 mm 1 mps 716 mmHg 90%
    10:00 +14°C° 0.1 mm 1 mps 716 mmHg 89%
    11:00 +15°C° 0.3 mm 2 mps 716 mmHg 83%
    12:00 +16°C° 0.3 mm 2 mps 716 mmHg 77%
    13:00 +16°C° 0.3 mm 3 mps 716 mmHg 72%
    14:00 +16°C° 0.3 mm 3 mps 716 mmHg 73%
    15:00 +16°C° 0.3 mm 2 mps 716 mmHg 75%
    16:00 +16°C° 0.3 mm 2 mps 716 mmHg 76%
    17:00 +15°C° 0.2 mm 2 mps 716 mmHg 79%
    18:00 +14°C° 0.2 mm 1 mps 716 mmHg 82%
    19:00 +13°C° 0.2 mm 1 mps 717 mmHg 85%
    20:00 +12°C° 0.1 mm 1 mps 717 mmHg 87%
    21:00 +12°C° 0.1 mm 1 mps 718 mmHg 88%
    22:00 +12°C° 0.1 mm 1 mps 718 mmHg 90%
    23:00 +11°C° 0 mm 1 mps 718 mmHg 90%

    26 September, Thursday

    Time Temperature Precipitation Wind Pressure Humidity
    00:00 +11°C° 0 mm 1 mps 718 mmHg 89%
    01:00 +11°C° 0 mm 1 mps 718 mmHg 89%
    02:00 +11°C° 0 mm 1 mps 718 mmHg 89%
    03:00 +11°C° 0 mm 1 mps 718 mmHg 89%
    04:00 +12°C° 0 mm 1 mps 718 mmHg 89%
    05:00 +12°C° 0.2 mm 1 mps 719 mmHg 89%
    06:00 +12°C° 0.2 mm 1 mps 719 mmHg 90%
    07:00 +12°C° 0.2 mm 1 mps 719 mmHg 91%
    08:00 +13°C° 0.1 mm 1 mps 719 mmHg 90%
    09:00 +13°C° 0.1 mm 1 mps 719 mmHg 89%
    10:00 +14°C° 0.1 mm 1 mps 720 mmHg 88%
    11:00 +15°C° 0 mm 2 mps 720 mmHg 82%
    12:00 +17°C° 0 mm 2 mps 720 mmHg 76%
    13:00 +18°C° 0 mm 2 mps 720 mmHg 70%
    14:00 +20°C° 0 mm 1 mps 720 mmHg 70%
    15:00 +20°C° 0 mm 1 mps 719 mmHg 69%
    16:00 +20°C° 0 mm 1 mps 719 mmHg 69%
    17:00 +19°C° 0 mm 1 mps 719 mmHg 75%
    18:00 +16°C° 0 mm 0 mps 719 mmHg 81%
    19:00 +15°C° 0 mm 0 mps 719 mmHg 87%
    20:00 +14°C° 0 mm 0 mps 720 mmHg 88%
    21:00 +14°C° 0 mm 0 mps 720 mmHg 88%
    22:00 +14°C° 0 mm 0 mps 720 mmHg 89%
    23:00 +14°C° 0 mm 0 mps 720 mmHg 90%

    27 September, Friday

    Time Temperature Precipitation Wind Pressure Humidity
    00:00 +14°C° 0 mm 0 mps 720 mmHg 91%
    01:00 +13°C° 0 mm 0 mps 720 mmHg 91%
    02:00 +13°C° 0.2 mm 0 mps 720 mmHg 92%
    03:00 +15°C° 0.2 mm 1 mps 720 mmHg 93%
    04:00 +15°C° 0.2 mm 1 mps 720 mmHg 93%
    05:00 +15°C° 0.2 mm 1 mps 719 mmHg 94%
    06:00 +15°C° 0.2 mm 1 mps 719 mmHg 94%
    07:00 +15°C° 0.2 mm 1 mps 719 mmHg 94%
    08:00 +15°C° 0.1 mm 1 mps 719 mmHg 92%
    09:00 +15°C° 0.1 mm 0 mps 719 mmHg 91%
    10:00 +16°C° 0.1 mm 0 mps 719 mmHg 89%
    11:00 +18°C° 0.2 mm 1 mps 719 mmHg 88%
    12:00 +18°C° 0.2 mm 1 mps 719 mmHg 87%
    13:00 +19°C° 0.2 mm 1 mps 718 mmHg 85%
    14:00 +19°C° 0.2 mm 1 mps 718 mmHg 84%
    15:00 +19°C° 0.2 mm 1 mps 718 mmHg 83%
    16:00 +19°C° 0.2 mm 2 mps 718 mmHg 81%
    17:00 +18°C° 0.4 mm 1 mps 718 mmHg 85%
    18:00 +16°C° 0.4 mm 1 mps 718 mmHg 89%
    19:00 +15°C° 0.4 mm 1 mps 718 mmHg 92%
    20:00 +15°C° 1 mm 1 mps 718 mmHg 94%
    21:00 +15°C° 1 mm 1 mps 719 mmHg 95%
    22:00 +15°C° 1 mm 1 mps 719 mmHg 97%
    23:00 +15°C° 1.4 mm 1 mps 719 mmHg 97%
    Show more